THOR ABLESTAR DEB, 230

Orbit data source: Space-Track

THOR ABLESTAR DEB, 230 is space debris in LEO originally from a launch on Thu, 29 Jun 1961 UTC launched from the Air Force Eastern Test Range (AFETR). Debris objects in space refer to the collection of defunct objects orbiting the Earth. Examples of debris include non-operational satellites, rocket bodies, and fragments generated from explosions, collisions, or faulty payload assembly.

Loading next visibility...
Identifier
230, 1961-015BN
Orbit
LEO
Country
Flag of USUS
Related business
Manufacturer
Unknown
Mission
Spacecraft
Bus & Motor
Unknown
Mass
Unknown
Launch date (UTC)
1961-06-29 (65 years ago)
Launch vehicle
Unknown
Launch site
Air Force Eastern Test Range (AFETR)
Object type
Payload
Rocket body
Debris
Shape & HBR
Unknown shape, 0.2 m
Radar Cross Section
Small (<0.1 m²)

Expand to show TLE details & history
Last TLE update: 13 hours ago

TLE from 13 hours ago
0 THOR ABLESTAR DEB
1   230U 61015BN  26035.36362651  .00000091  00000-0  11597-3 0  9992
2   230  66.8844  15.5452 0099961 269.0047  89.9581 13.96773038287203
Epoch: 2026-02-04T08:43Z
TLE epoch observation values (Epoch: 2026-02-04T08:43:37.330Z)
Latitude
-0.00007°
Longitude
110.10835°
Altitude
907.754 km
Speed
7.398 km/s
True Right ascension
01h 02m 10s
True Declination
0° 00' 00"
Sunlit
Object was in daylight at epoch
Visualization orbit readout
Latitude
Unknown
Longitude
Unknown
Altitude
Unknown
Speed
Unknown
Apparent Right ascension
Unknown
Apparent Declination
Unknown
Sunlit
N/A
Visualization observer readout
Local Sidereal Time
23:26:49
Azimuth
Unknown
Elevation
Unknown
Doppler factor
Unknown
Orbital elements
Apogee altitude
976.157 km
Perigee altitude
830.583 km
Semi-major axis
7,281.507 km
Eccentricity
0.01
Inclination
66.8844°
RAAN
15.5452°
Arg. of periapsis
269.0047°
True anomaly
91.1035°
Mean anomaly
89.9581°
Eccentric anomaly
90.53081°
Mean motion
3.4931 °/min
Orbital period
103.06 mins
BSTAR
0.00011597
Loading maneuver chart data...
Computing Atmospheric mass density...

Documentation

Showing up to 5 results
|